Year,Month,Day,Hour,Minute,Value (Times are PST for temperature in C)
2013,07,15,00,00,14.30
2013,07,15,00,01,14.20
2013,07,15,00,02,14.20
2013,07,15,00,03,14.20
2013,07,15,00,04,14.20
2013,07,15,00,05,14.20
2013,07,15,00,06,14.20
2013,07,15,00,07,14.20
2013,07,15,00,08,14.20
2013,07,15,00,09,14.20
2013,07,15,00,10,14.20
2013,07,15,00,11,14.20
2013,07,15,00,12,14.20
2013,07,15,00,13,14.20
2013,07,15,00,14,14.20
2013,07,15,00,15,14.10
2013,07,15,00,16,14.10
2013,07,15,00,17,14.10
2013,07,15,00,18,14.10
2013,07,15,00,19,14.10
2013,07,15,00,20,14.10
2013,07,15,00,21,14.20
2013,07,15,00,22,14.20
2013,07,15,00,23,14.10
2013,07,15,00,24,14.10
2013,07,15,00,25,14.10
2013,07,15,00,26,14.10
2013,07,15,00,27,14.10
2013,07,15,00,28,14.10
2013,07,15,00,29,14.10
2013,07,15,00,30,14.10
2013,07,15,00,31,14.10
2013,07,15,00,32,14.10
2013,07,15,00,33,14.00
2013,07,15,00,34,14.00
2013,07,15,00,35,14.00
2013,07,15,00,36,14.00
2013,07,15,00,37,14.00
2013,07,15,00,38,14.00
2013,07,15,00,39,14.00
2013,07,15,00,40,14.00
2013,07,15,00,41,14.00
2013,07,15,00,42,14.00
2013,07,15,00,43,14.00
2013,07,15,00,44,14.00
2013,07,15,00,45,14.00
2013,07,15,00,46,14.00
2013,07,15,00,47,14.00
2013,07,15,00,48,14.00
2013,07,15,00,49,14.00
2013,07,15,00,50,14.00
2013,07,15,00,51,14.00
2013,07,15,00,52,14.00
2013,07,15,00,53,14.00
2013,07,15,00,54,14.00
2013,07,15,00,55,14.00
2013,07,15,00,56,14.00
2013,07,15,00,57,14.00
2013,07,15,00,58,13.90
2013,07,15,00,59,13.90
2013,07,15,01,00,13.90
2013,07,15,01,01,13.90
2013,07,15,01,02,13.90
2013,07,15,01,03,13.90
2013,07,15,01,04,13.90
2013,07,15,01,05,13.90
2013,07,15,01,06,13.90
2013,07,15,01,07,13.90
2013,07,15,01,08,13.90
2013,07,15,01,09,13.80
2013,07,15,01,10,13.80
2013,07,15,01,11,13.80
2013,07,15,01,12,13.80
2013,07,15,01,13,13.70
2013,07,15,01,14,13.70
2013,07,15,01,15,13.70
2013,07,15,01,16,13.70
2013,07,15,01,17,13.70
2013,07,15,01,18,13.70
2013,07,15,01,19,13.70
2013,07,15,01,20,13.60
2013,07,15,01,21,13.60
2013,07,15,01,22,13.60
2013,07,15,01,23,13.60
2013,07,15,01,24,13.60
2013,07,15,01,25,13.50
2013,07,15,01,26,13.50
2013,07,15,01,27,13.50
2013,07,15,01,28,13.50
2013,07,15,01,29,13.50
2013,07,15,01,30,13.50
2013,07,15,01,31,13.50
2013,07,15,01,32,13.50
2013,07,15,01,33,13.40
2013,07,15,01,34,13.40
2013,07,15,01,35,13.40
2013,07,15,01,36,13.40
2013,07,15,01,37,13.40
2013,07,15,01,38,13.40
2013,07,15,01,39,13.30
2013,07,15,01,40,13.30
2013,07,15,01,41,13.30
2013,07,15,01,42,13.30
2013,07,15,01,43,13.30
2013,07,15,01,44,13.30
2013,07,15,01,45,13.30
2013,07,15,01,46,13.30
2013,07,15,01,47,13.30
2013,07,15,01,48,13.20
2013,07,15,01,49,13.20
2013,07,15,01,50,13.20
2013,07,15,01,51,13.20
2013,07,15,01,52,13.20
2013,07,15,01,53,13.20
2013,07,15,01,54,13.20
2013,07,15,01,55,13.20
2013,07,15,01,56,13.20
2013,07,15,01,57,13.20
2013,07,15,01,58,13.20
2013,07,15,01,59,13.20
2013,07,15,02,00,13.20
2013,07,15,02,01,13.20
2013,07,15,02,02,13.20
2013,07,15,02,03,13.20
2013,07,15,02,04,13.20
2013,07,15,02,05,13.20
2013,07,15,02,06,13.20
2013,07,15,02,07,13.20
2013,07,15,02,08,13.20
2013,07,15,02,09,13.20
2013,07,15,02,10,13.20
2013,07,15,02,11,13.20
2013,07,15,02,12,13.20
2013,07,15,02,13,13.20
2013,07,15,02,14,13.20
2013,07,15,02,15,13.20
2013,07,15,02,16,13.30
2013,07,15,02,17,13.30
2013,07,15,02,18,13.30
2013,07,15,02,19,13.30
2013,07,15,02,20,13.30
2013,07,15,02,21,13.30
2013,07,15,02,22,13.30
2013,07,15,02,23,13.30
2013,07,15,02,24,13.30
2013,07,15,02,25,13.30
2013,07,15,02,26,13.30
2013,07,15,02,27,13.30
2013,07,15,02,28,13.30
2013,07,15,02,29,13.30
2013,07,15,02,30,13.30
2013,07,15,02,31,13.30
2013,07,15,02,32,13.30
2013,07,15,02,33,13.30
2013,07,15,02,34,13.30
2013,07,15,02,35,13.30
2013,07,15,02,36,13.30
2013,07,15,02,37,13.30
2013,07,15,02,38,13.30
2013,07,15,02,39,13.30
2013,07,15,02,40,13.30
2013,07,15,02,41,13.30
2013,07,15,02,42,13.30
2013,07,15,02,43,13.30
2013,07,15,02,44,13.30
2013,07,15,02,45,13.30
2013,07,15,02,46,13.30
2013,07,15,02,47,13.30
2013,07,15,02,48,13.30
2013,07,15,02,49,13.30
2013,07,15,02,50,13.30
2013,07,15,02,51,13.30
2013,07,15,02,52,13.30
2013,07,15,02,53,13.30
2013,07,15,02,54,13.30
2013,07,15,02,55,13.30
2013,07,15,02,56,13.40
2013,07,15,02,57,13.40
2013,07,15,02,58,13.40
2013,07,15,02,59,13.40
2013,07,15,03,00,13.40
2013,07,15,03,01,13.50
2013,07,15,03,02,13.50
2013,07,15,03,03,13.60
2013,07,15,03,04,13.60
2013,07,15,03,05,13.60
2013,07,15,03,06,13.70
2013,07,15,03,07,13.70
2013,07,15,03,08,13.70
2013,07,15,03,09,13.70
2013,07,15,03,10,13.70
2013,07,15,03,11,13.70
2013,07,15,03,12,13.80
2013,07,15,03,13,13.80
2013,07,15,03,14,13.80
2013,07,15,03,15,13.80
2013,07,15,03,16,13.80
2013,07,15,03,17,13.90
2013,07,15,03,18,13.90
2013,07,15,03,19,13.90
2013,07,15,03,20,13.90
2013,07,15,03,21,13.90
2013,07,15,03,22,13.90
2013,07,15,03,23,14.00
2013,07,15,03,24,14.00
2013,07,15,03,25,14.00
2013,07,15,03,26,14.00
2013,07,15,03,27,14.00
2013,07,15,03,28,14.10
2013,07,15,03,29,14.10
2013,07,15,03,30,14.10
2013,07,15,03,31,14.10
2013,07,15,03,32,14.10
2013,07,15,03,33,14.10
2013,07,15,03,34,14.10
2013,07,15,03,35,14.10
2013,07,15,03,36,14.10
2013,07,15,03,37,14.10
2013,07,15,03,38,14.10
2013,07,15,03,39,14.10
2013,07,15,03,40,14.10
2013,07,15,03,41,14.00
2013,07,15,03,42,14.00
2013,07,15,03,43,14.00
2013,07,15,03,44,14.00
2013,07,15,03,45,14.00
2013,07,15,03,46,14.00
2013,07,15,03,47,14.00
2013,07,15,03,48,13.90
2013,07,15,03,49,13.90
2013,07,15,03,50,13.90
2013,07,15,03,51,13.90
2013,07,15,03,52,13.90
2013,07,15,03,53,13.90
2013,07,15,03,54,13.80
2013,07,15,03,55,13.80
2013,07,15,03,56,13.80
2013,07,15,03,57,13.80
2013,07,15,03,58,13.80
2013,07,15,03,59,13.80
2013,07,15,04,00,13.80
2013,07,15,04,01,13.90
2013,07,15,04,02,13.90
2013,07,15,04,03,13.90
2013,07,15,04,04,13.90
2013,07,15,04,05,13.90
2013,07,15,04,06,13.80
2013,07,15,04,07,13.80
2013,07,15,04,08,13.80
2013,07,15,04,09,13.80
2013,07,15,04,10,13.80
2013,07,15,04,11,13.80
2013,07,15,04,12,13.80
2013,07,15,04,13,13.80
2013,07,15,04,14,13.80
2013,07,15,04,15,13.80
2013,07,15,04,16,13.80
2013,07,15,04,17,13.80
2013,07,15,04,18,13.80
2013,07,15,04,19,13.80
2013,07,15,04,20,13.80
2013,07,15,04,21,13.80
2013,07,15,04,22,13.80
2013,07,15,04,23,13.80
2013,07,15,04,24,13.80
2013,07,15,04,25,13.80
2013,07,15,04,26,13.80
2013,07,15,04,27,13.80
2013,07,15,04,28,13.80
2013,07,15,04,29,13.80
2013,07,15,04,30,13.80
2013,07,15,04,31,13.80
2013,07,15,04,32,13.80
2013,07,15,04,33,13.70
2013,07,15,04,34,13.70
2013,07,15,04,35,13.70
2013,07,15,04,36,13.70
2013,07,15,04,37,13.70
2013,07,15,04,38,13.70
2013,07,15,04,39,13.70
2013,07,15,04,40,13.60
2013,07,15,04,41,13.60
2013,07,15,04,42,13.60
2013,07,15,04,43,13.60
2013,07,15,04,44,13.60
2013,07,15,04,45,13.50
2013,07,15,04,46,13.50
2013,07,15,04,47,13.50
2013,07,15,04,48,13.50
2013,07,15,04,49,13.50
2013,07,15,04,50,13.50
2013,07,15,04,51,13.50
2013,07,15,04,52,13.40
2013,07,15,04,53,13.40
2013,07,15,04,54,13.40
2013,07,15,04,55,13.40
2013,07,15,04,56,13.40
2013,07,15,04,57,13.40
2013,07,15,04,58,13.30
2013,07,15,04,59,13.30
2013,07,15,05,00,13.30
2013,07,15,05,01,13.30
2013,07,15,05,02,13.30
2013,07,15,05,03,13.30
2013,07,15,05,04,13.30
2013,07,15,05,05,13.20
2013,07,15,05,06,13.20
2013,07,15,05,07,13.20
2013,07,15,05,08,13.20
2013,07,15,05,09,13.20
2013,07,15,05,10,13.10
2013,07,15,05,11,13.10
2013,07,15,05,12,13.10
2013,07,15,05,13,13.10
2013,07,15,05,14,13.10
2013,07,15,05,15,13.10
2013,07,15,05,16,13.10
2013,07,15,05,17,13.10
2013,07,15,05,18,13.10
2013,07,15,05,19,13.10
2013,07,15,05,20,13.10
2013,07,15,05,21,13.10
2013,07,15,05,22,13.10
2013,07,15,05,23,13.00
2013,07,15,05,24,13.00
2013,07,15,05,25,13.00
2013,07,15,05,26,12.90
2013,07,15,05,27,12.80
2013,07,15,05,28,12.80
2013,07,15,05,29,12.70
2013,07,15,05,30,12.70
2013,07,15,05,31,12.60
2013,07,15,05,32,12.60
2013,07,15,05,33,12.60
2013,07,15,05,34,12.50
2013,07,15,05,35,12.50
2013,07,15,05,36,12.40
2013,07,15,05,37,12.40
2013,07,15,05,38,12.40
2013,07,15,05,39,12.40
2013,07,15,05,40,12.30
2013,07,15,05,41,12.30
2013,07,15,05,42,12.30
2013,07,15,05,43,12.30
2013,07,15,05,44,12.20
2013,07,15,05,45,12.20
2013,07,15,05,46,12.10
2013,07,15,05,47,12.10
2013,07,15,05,48,12.10
2013,07,15,05,49,12.10
2013,07,15,05,50,12.10
2013,07,15,05,51,12.10
2013,07,15,05,52,12.10
2013,07,15,05,53,12.10
2013,07,15,05,54,12.10
2013,07,15,05,55,12.10
2013,07,15,05,56,12.10
2013,07,15,05,57,12.10
2013,07,15,05,58,12.10
2013,07,15,05,59,12.10
2013,07,15,06,00,12.10
2013,07,15,06,01,12.10
2013,07,15,06,02,12.10
2013,07,15,06,03,12.10
2013,07,15,06,04,12.10
2013,07,15,06,05,12.10
2013,07,15,06,06,12.10
2013,07,15,06,07,12.10
2013,07,15,06,08,12.10
2013,07,15,06,09,12.10
2013,07,15,06,10,12.10
2013,07,15,06,11,12.10
2013,07,15,06,12,12.10
2013,07,15,06,13,12.10
2013,07,15,06,14,12.10
2013,07,15,06,15,12.10
2013,07,15,06,16,12.10
2013,07,15,06,17,12.10
2013,07,15,06,18,12.20
2013,07,15,06,19,12.20
2013,07,15,06,20,12.20
2013,07,15,06,21,12.20
2013,07,15,06,22,12.20
2013,07,15,06,23,12.20
2013,07,15,06,24,12.20
2013,07,15,06,25,12.20
2013,07,15,06,26,12.30
2013,07,15,06,27,12.30
2013,07,15,06,28,12.30
2013,07,15,06,29,12.40
2013,07,15,06,30,12.40
2013,07,15,06,31,12.40
2013,07,15,06,32,12.50
2013,07,15,06,33,12.50
2013,07,15,06,34,12.60
2013,07,15,06,35,12.60
2013,07,15,06,36,12.60
2013,07,15,06,37,12.70
2013,07,15,06,38,12.70
2013,07,15,06,39,12.80
2013,07,15,06,40,12.80
2013,07,15,06,41,12.80
2013,07,15,06,42,12.90
2013,07,15,06,43,12.90
2013,07,15,06,44,13.00
2013,07,15,06,45,13.00
2013,07,15,06,46,13.10
2013,07,15,06,47,13.10
2013,07,15,06,48,13.20
2013,07,15,06,49,13.20
2013,07,15,06,50,13.30
2013,07,15,06,51,13.30
2013,07,15,06,52,13.40
2013,07,15,06,53,13.40
2013,07,15,06,54,13.50
2013,07,15,06,55,13.50
2013,07,15,06,56,13.60
2013,07,15,06,57,13.60
2013,07,15,06,58,13.60
2013,07,15,06,59,13.70
2013,07,15,07,00,13.70
2013,07,15,07,01,13.80
2013,07,15,07,02,13.80
2013,07,15,07,03,13.80
2013,07,15,07,04,13.90
2013,07,15,07,05,13.90
2013,07,15,07,06,13.90
2013,07,15,07,07,14.00
2013,07,15,07,08,14.00
2013,07,15,07,09,14.00
2013,07,15,07,10,14.10
2013,07,15,07,11,14.10
2013,07,15,07,12,14.10
2013,07,15,07,13,14.10
2013,07,15,07,14,14.20
2013,07,15,07,15,14.20
2013,07,15,07,16,14.20
2013,07,15,07,17,14.30
2013,07,15,07,18,14.30
2013,07,15,07,19,14.30
2013,07,15,07,20,14.40
2013,07,15,07,21,14.40
2013,07,15,07,22,14.40
2013,07,15,07,23,14.50
2013,07,15,07,24,14.50
2013,07,15,07,25,14.60
2013,07,15,07,26,14.60
2013,07,15,07,27,14.70
2013,07,15,07,28,14.70
2013,07,15,07,29,14.70
2013,07,15,07,30,14.70
2013,07,15,07,31,14.80
2013,07,15,07,32,14.80
2013,07,15,07,33,14.80
2013,07,15,07,34,14.90
2013,07,15,07,35,14.90
2013,07,15,07,36,14.90
2013,07,15,07,37,14.90
2013,07,15,07,38,14.90
2013,07,15,07,39,14.90
2013,07,15,07,40,15.00
2013,07,15,07,41,15.00
2013,07,15,07,42,15.10
2013,07,15,07,43,15.10
2013,07,15,07,44,15.10
2013,07,15,07,45,15.20
2013,07,15,07,46,15.20
2013,07,15,07,47,15.20
2013,07,15,07,48,15.20
2013,07,15,07,49,15.20
2013,07,15,07,50,15.20
2013,07,15,07,51,15.20
2013,07,15,07,52,15.30
2013,07,15,07,53,15.30
2013,07,15,07,54,15.30
2013,07,15,07,55,15.40
2013,07,15,07,56,15.40
2013,07,15,07,57,15.50
2013,07,15,07,58,15.50
2013,07,15,07,59,15.60
2013,07,15,08,00,15.70
2013,07,15,08,01,15.70
2013,07,15,08,02,15.80
2013,07,15,08,03,15.80
2013,07,15,08,04,15.80
2013,07,15,08,05,15.90
2013,07,15,08,06,15.90
2013,07,15,08,07,16.00
2013,07,15,08,08,16.00
2013,07,15,08,09,16.10
2013,07,15,08,10,16.10
2013,07,15,08,11,16.20
2013,07,15,08,12,16.20
2013,07,15,08,13,16.30
2013,07,15,08,14,16.30
2013,07,15,08,15,16.30
2013,07,15,08,16,16.40
2013,07,15,08,17,16.40
2013,07,15,08,18,16.40
2013,07,15,08,19,16.50
2013,07,15,08,20,16.50
2013,07,15,08,21,16.60
2013,07,15,08,22,16.60
2013,07,15,08,23,16.70
2013,07,15,08,24,16.70
2013,07,15,08,25,16.70
2013,07,15,08,26,16.80
2013,07,15,08,27,16.80
2013,07,15,08,28,16.80
2013,07,15,08,29,16.90
2013,07,15,08,30,16.90
2013,07,15,08,31,17.00
2013,07,15,08,32,17.00
2013,07,15,08,33,17.10
2013,07,15,08,34,17.10
2013,07,15,08,35,17.10
2013,07,15,08,36,17.20
2013,07,15,08,37,17.20
2013,07,15,08,38,17.20
2013,07,15,08,39,17.20
2013,07,15,08,40,17.20
2013,07,15,08,41,17.10
2013,07,15,08,42,17.10
2013,07,15,08,43,17.10
2013,07,15,08,44,17.10
2013,07,15,08,45,17.10
2013,07,15,08,46,17.10
2013,07,15,08,47,17.10
2013,07,15,08,48,17.10
2013,07,15,08,49,17.10
2013,07,15,08,50,17.10
2013,07,15,08,51,17.20
2013,07,15,08,52,17.20
2013,07,15,08,53,17.30
2013,07,15,08,54,17.30
2013,07,15,08,55,17.40
2013,07,15,08,56,17.40
2013,07,15,08,57,17.50
2013,07,15,08,58,17.60
2013,07,15,08,59,17.60
2013,07,15,09,00,17.60
2013,07,15,09,01,17.60
2013,07,15,09,02,17.70
2013,07,15,09,03,17.70
2013,07,15,09,04,17.70
2013,07,15,09,05,17.80
2013,07,15,09,06,17.90
2013,07,15,09,07,18.00
2013,07,15,09,08,18.00
2013,07,15,09,09,18.10
2013,07,15,09,10,18.10
2013,07,15,09,11,18.00
2013,07,15,09,12,17.90
2013,07,15,09,13,17.80
2013,07,15,09,14,17.80
2013,07,15,09,15,17.70
2013,07,15,09,16,17.70
2013,07,15,09,17,17.70
2013,07,15,09,18,17.60
2013,07,15,09,19,17.50
2013,07,15,09,20,17.40
2013,07,15,09,21,17.30
2013,07,15,09,22,17.30
2013,07,15,09,23,17.20
2013,07,15,09,24,17.20
2013,07,15,09,25,17.20
2013,07,15,09,26,17.20
2013,07,15,09,27,17.20
2013,07,15,09,28,17.30
2013,07,15,09,29,17.30
2013,07,15,09,30,17.30
2013,07,15,09,31,17.40
2013,07,15,09,32,17.50
2013,07,15,09,33,17.50
2013,07,15,09,34,17.40
2013,07,15,09,35,17.40
2013,07,15,09,36,17.40
2013,07,15,09,37,17.40
2013,07,15,09,38,17.40
2013,07,15,09,39,17.40
2013,07,15,09,40,17.40
2013,07,15,09,41,17.50
2013,07,15,09,42,17.50
2013,07,15,09,43,17.50
2013,07,15,09,44,17.60
2013,07,15,09,45,17.60
2013,07,15,09,46,17.70
2013,07,15,09,47,17.70
2013,07,15,09,48,17.60
2013,07,15,09,49,17.60
2013,07,15,09,50,17.60
2013,07,15,09,51,17.60
2013,07,15,09,52,17.60
2013,07,15,09,53,17.60
2013,07,15,09,54,17.60
2013,07,15,09,55,17.60
2013,07,15,09,56,17.60
2013,07,15,09,57,17.60
2013,07,15,09,58,17.60
2013,07,15,09,59,17.60
2013,07,15,10,00,17.60
2013,07,15,10,01,17.60
2013,07,15,10,02,17.60
2013,07,15,10,03,17.60
2013,07,15,10,04,17.60
2013,07,15,10,05,17.60
2013,07,15,10,06,17.60
2013,07,15,10,07,17.60
2013,07,15,10,08,17.70
2013,07,15,10,09,17.70
2013,07,15,10,10,17.70
2013,07,15,10,11,17.70
2013,07,15,10,12,17.80
2013,07,15,10,13,17.80
2013,07,15,10,14,17.90
2013,07,15,10,15,17.90
2013,07,15,10,16,17.90
2013,07,15,10,17,17.90
2013,07,15,10,18,18.00
2013,07,15,10,19,18.00
2013,07,15,10,20,18.10
2013,07,15,10,21,18.10
2013,07,15,10,22,18.20
2013,07,15,10,23,18.20
2013,07,15,10,24,18.30
2013,07,15,10,25,18.30
2013,07,15,10,26,18.40
2013,07,15,10,27,18.40
2013,07,15,10,28,18.40
2013,07,15,10,29,18.40
2013,07,15,10,30,18.50
2013,07,15,10,31,18.50
2013,07,15,10,32,18.60
2013,07,15,10,33,18.70
2013,07,15,10,34,18.70
2013,07,15,10,35,18.80
2013,07,15,10,36,18.80
2013,07,15,10,37,18.80
2013,07,15,10,38,18.80
2013,07,15,10,39,18.80
2013,07,15,10,40,18.80
2013,07,15,10,41,18.80
2013,07,15,10,42,18.90
2013,07,15,10,43,18.90
2013,07,15,10,44,19.00
2013,07,15,10,45,19.00
2013,07,15,10,46,19.10
2013,07,15,10,47,19.20
2013,07,15,10,48,19.20
2013,07,15,10,49,19.30
2013,07,15,10,50,19.30
2013,07,15,10,51,19.30
2013,07,15,10,52,19.40
2013,07,15,10,53,19.50
2013,07,15,10,54,19.60
2013,07,15,10,55,19.70
2013,07,15,10,56,19.80
2013,07,15,10,57,19.90
2013,07,15,10,58,20.10
2013,07,15,10,59,20.30
2013,07,15,11,00,20.50
2013,07,15,11,01,20.60
2013,07,15,11,02,20.80
2013,07,15,11,03,21.00
2013,07,15,11,04,21.10
2013,07,15,11,05,21.30
2013,07,15,11,06,21.40
2013,07,15,11,07,21.60
2013,07,15,11,08,21.70
2013,07,15,11,09,21.80
2013,07,15,11,10,21.80
2013,07,15,11,11,21.90
2013,07,15,11,12,22.00
2013,07,15,11,13,22.00
2013,07,15,11,14,22.10
2013,07,15,11,15,22.10
2013,07,15,11,16,22.10
2013,07,15,11,17,22.20
2013,07,15,11,18,22.30
2013,07,15,11,19,22.30
2013,07,15,11,20,22.30
2013,07,15,11,21,22.30
2013,07,15,11,22,22.30
2013,07,15,11,23,22.30
2013,07,15,11,24,22.30
2013,07,15,11,25,22.30
2013,07,15,11,26,22.30
2013,07,15,11,27,22.30
2013,07,15,11,28,22.30
2013,07,15,11,29,22.40
2013,07,15,11,30,22.40
2013,07,15,11,31,22.40
2013,07,15,11,32,22.40
2013,07,15,11,33,22.50
2013,07,15,11,34,22.50
2013,07,15,11,35,22.40
2013,07,15,11,36,22.40
2013,07,15,11,37,22.40
2013,07,15,11,38,22.40
2013,07,15,11,39,22.40
2013,07,15,11,40,22.40
2013,07,15,11,41,22.40
2013,07,15,11,42,22.40
2013,07,15,11,43,22.40
2013,07,15,11,44,22.40
2013,07,15,11,45,22.50
2013,07,15,11,46,22.60
2013,07,15,11,47,22.70
2013,07,15,11,48,22.80
2013,07,15,11,49,22.80
2013,07,15,11,50,22.80
2013,07,15,11,51,22.80
2013,07,15,11,52,22.70
2013,07,15,11,53,22.60
2013,07,15,11,54,22.60
2013,07,15,11,55,22.60
2013,07,15,11,56,22.70
2013,07,15,11,57,22.70
2013,07,15,11,58,22.70
2013,07,15,11,59,22.70
2013,07,15,12,00,22.70
2013,07,15,12,01,22.70
2013,07,15,12,02,22.70
2013,07,15,12,03,22.60
2013,07,15,12,04,22.60
2013,07,15,12,05,22.60
2013,07,15,12,06,22.70
2013,07,15,12,07,22.70
2013,07,15,12,08,22.80
2013,07,15,12,09,22.80
2013,07,15,12,10,22.90
2013,07,15,12,11,23.00
2013,07,15,12,12,23.00
2013,07,15,12,13,23.00
2013,07,15,12,14,23.00
2013,07,15,12,15,23.00
2013,07,15,12,16,23.00
2013,07,15,12,17,23.00
2013,07,15,12,18,23.10
2013,07,15,12,19,23.00
2013,07,15,12,20,23.00
2013,07,15,12,21,23.00
2013,07,15,12,22,22.90
2013,07,15,12,23,23.00
2013,07,15,12,24,23.10
2013,07,15,12,25,23.10
2013,07,15,12,26,23.10
2013,07,15,12,27,23.10
2013,07,15,12,28,23.10
2013,07,15,12,29,23.20
2013,07,15,12,30,23.20
2013,07,15,12,31,23.30
2013,07,15,12,32,23.30
2013,07,15,12,33,23.40
2013,07,15,12,34,23.40
2013,07,15,12,35,23.30
2013,07,15,12,36,23.30
2013,07,15,12,37,23.40
2013,07,15,12,38,23.40
2013,07,15,12,39,23.40
2013,07,15,12,40,23.40
2013,07,15,12,41,23.40
2013,07,15,12,42,23.40
2013,07,15,12,43,23.40
2013,07,15,12,44,23.50
2013,07,15,12,45,23.50
2013,07,15,12,46,23.60
2013,07,15,12,47,23.60
2013,07,15,12,48,23.60
2013,07,15,12,49,23.60
2013,07,15,12,50,23.80
2013,07,15,12,51,23.90
2013,07,15,12,52,23.90
2013,07,15,12,53,24.00
2013,07,15,12,54,24.00
2013,07,15,12,55,24.00
2013,07,15,12,56,23.90
2013,07,15,12,57,23.90
2013,07,15,12,58,23.90
2013,07,15,12,59,23.90
2013,07,15,13,00,23.90
2013,07,15,13,01,23.70
2013,07,15,13,02,23.50
2013,07,15,13,03,23.30
2013,07,15,13,04,23.10
2013,07,15,13,05,22.90
2013,07,15,13,06,22.70
2013,07,15,13,07,22.50
2013,07,15,13,08,22.20
2013,07,15,13,09,22.00
2013,07,15,13,10,21.80
2013,07,15,13,11,21.70
2013,07,15,13,12,21.50
2013,07,15,13,13,21.50
2013,07,15,13,14,21.30
2013,07,15,13,15,21.20
2013,07,15,13,16,21.10
2013,07,15,13,17,21.10
2013,07,15,13,18,21.00
2013,07,15,13,19,20.90
2013,07,15,13,20,20.90
2013,07,15,13,21,20.90
2013,07,15,13,22,21.00
2013,07,15,13,23,21.00
2013,07,15,13,24,21.10
2013,07,15,13,25,21.10
2013,07,15,13,26,21.10
2013,07,15,13,27,21.10
2013,07,15,13,28,21.00
2013,07,15,13,29,21.00
2013,07,15,13,30,21.10
2013,07,15,13,31,21.10
2013,07,15,13,32,21.20
2013,07,15,13,33,21.30
2013,07,15,13,34,21.30
2013,07,15,13,35,21.40
2013,07,15,13,36,21.40
2013,07,15,13,37,21.50
2013,07,15,13,38,21.60
2013,07,15,13,39,21.70
2013,07,15,13,40,21.60
2013,07,15,13,41,21.60
2013,07,15,13,42,21.70
2013,07,15,13,43,21.70
2013,07,15,13,44,21.80
2013,07,15,13,45,21.90
2013,07,15,13,46,22.00
2013,07,15,13,47,22.00
2013,07,15,13,48,22.00
2013,07,15,13,49,21.90
2013,07,15,13,50,21.90
2013,07,15,13,51,21.90
2013,07,15,13,52,21.90
2013,07,15,13,53,21.90
2013,07,15,13,54,21.80
2013,07,15,13,55,21.70
2013,07,15,13,56,21.70
2013,07,15,13,57,21.70
2013,07,15,13,58,21.70
2013,07,15,13,59,21.80
2013,07,15,14,00,21.80
2013,07,15,14,01,21.90
2013,07,15,14,02,22.00
2013,07,15,14,03,22.10
2013,07,15,14,04,22.20
2013,07,15,14,05,22.30
2013,07,15,14,06,22.30
2013,07,15,14,07,22.40
2013,07,15,14,08,22.40
2013,07,15,14,09,22.50
2013,07,15,14,10,22.60
2013,07,15,14,11,22.70
2013,07,15,14,12,22.80
2013,07,15,14,13,22.80
2013,07,15,14,14,22.80
2013,07,15,14,15,22.80
2013,07,15,14,16,22.70
2013,07,15,14,17,22.70
2013,07,15,14,18,22.60
2013,07,15,14,19,22.40
2013,07,15,14,20,22.30
2013,07,15,14,21,22.20
2013,07,15,14,22,22.20
2013,07,15,14,23,22.20
2013,07,15,14,24,22.20
2013,07,15,14,25,22.20
2013,07,15,14,26,22.30
2013,07,15,14,27,22.30
2013,07,15,14,28,22.30
2013,07,15,14,29,22.40
2013,07,15,14,30,22.40
2013,07,15,14,31,22.40
2013,07,15,14,32,22.40
2013,07,15,14,33,22.30
2013,07,15,14,34,22.30
2013,07,15,14,35,22.30
2013,07,15,14,36,22.30
2013,07,15,14,37,22.30
2013,07,15,14,38,22.20
2013,07,15,14,39,22.10
2013,07,15,14,40,22.10
2013,07,15,14,41,22.10
2013,07,15,14,42,22.20
2013,07,15,14,43,22.20
2013,07,15,14,44,22.20
2013,07,15,14,45,22.20
2013,07,15,14,46,22.30
2013,07,15,14,47,22.20
2013,07,15,14,48,22.20
2013,07,15,14,49,22.20
2013,07,15,14,50,22.10
2013,07,15,14,51,22.10
2013,07,15,14,52,22.20
2013,07,15,14,53,22.30
2013,07,15,14,54,22.30
2013,07,15,14,55,22.30
2013,07,15,14,56,22.30
2013,07,15,14,57,22.30
2013,07,15,14,58,22.30
2013,07,15,14,59,22.30
2013,07,15,15,00,22.20
2013,07,15,15,01,22.20
2013,07,15,15,02,22.20
2013,07,15,15,03,22.30
2013,07,15,15,04,22.40
2013,07,15,15,05,22.50
2013,07,15,15,06,22.50
2013,07,15,15,07,22.60
2013,07,15,15,08,22.60
2013,07,15,15,09,22.60
2013,07,15,15,10,22.60
2013,07,15,15,11,22.60
2013,07,15,15,12,22.60
2013,07,15,15,13,22.60
2013,07,15,15,14,22.50
2013,07,15,15,15,22.50
2013,07,15,15,16,22.40
2013,07,15,15,17,22.50
2013,07,15,15,18,22.50
2013,07,15,15,19,22.60
2013,07,15,15,20,22.60
2013,07,15,15,21,22.50
2013,07,15,15,22,22.50
2013,07,15,15,23,22.50
2013,07,15,15,24,22.60
2013,07,15,15,25,22.70
2013,07,15,15,26,22.80
2013,07,15,15,27,22.90
2013,07,15,15,28,23.00
2013,07,15,15,29,23.10
2013,07,15,15,30,23.00
2013,07,15,15,31,23.00
2013,07,15,15,32,22.90
2013,07,15,15,33,22.90
2013,07,15,15,34,22.90
2013,07,15,15,35,22.90
2013,07,15,15,36,23.00
2013,07,15,15,37,23.00
2013,07,15,15,38,23.10
2013,07,15,15,39,23.20
2013,07,15,15,40,23.20
2013,07,15,15,41,23.30
2013,07,15,15,42,23.30
2013,07,15,15,43,23.30
2013,07,15,15,44,23.40
2013,07,15,15,45,23.50
2013,07,15,15,46,23.60
2013,07,15,15,47,23.70
2013,07,15,15,48,23.90
2013,07,15,15,49,24.00
2013,07,15,15,50,24.00
2013,07,15,15,51,24.00
2013,07,15,15,52,23.90
2013,07,15,15,53,23.80
2013,07,15,15,54,23.80
2013,07,15,15,55,23.70
2013,07,15,15,56,23.70
2013,07,15,15,57,23.70
2013,07,15,15,58,23.70
2013,07,15,15,59,23.70
2013,07,15,16,00,23.70
2013,07,15,16,01,23.70
2013,07,15,16,02,23.70
2013,07,15,16,03,23.70
2013,07,15,16,04,23.70
2013,07,15,16,05,23.70
2013,07,15,16,06,23.70
2013,07,15,16,07,23.70
2013,07,15,16,08,23.80
2013,07,15,16,09,23.80
2013,07,15,16,10,23.90
2013,07,15,16,11,24.00
2013,07,15,16,12,24.10
2013,07,15,16,13,24.20
2013,07,15,16,14,24.20
2013,07,15,16,15,24.20
2013,07,15,16,16,24.10
2013,07,15,16,17,24.00
2013,07,15,16,18,23.90
2013,07,15,16,19,23.80
2013,07,15,16,20,23.80
2013,07,15,16,21,23.90
2013,07,15,16,22,24.00
2013,07,15,16,23,24.20
2013,07,15,16,24,24.40
2013,07,15,16,25,24.60
2013,07,15,16,26,24.80
2013,07,15,16,27,25.00
2013,07,15,16,28,25.20
2013,07,15,16,29,25.20
2013,07,15,16,30,25.00
2013,07,15,16,31,24.80
2013,07,15,16,32,24.70
2013,07,15,16,33,24.70
2013,07,15,16,34,24.60
2013,07,15,16,35,24.50
2013,07,15,16,36,24.40
2013,07,15,16,37,24.20
2013,07,15,16,38,24.10
2013,07,15,16,39,24.10
2013,07,15,16,40,24.00
2013,07,15,16,41,24.00
2013,07,15,16,42,23.80
2013,07,15,16,43,23.80
2013,07,15,16,44,23.80
2013,07,15,16,45,23.80
2013,07,15,16,46,23.80
2013,07,15,16,47,23.80
2013,07,15,16,48,23.70
2013,07,15,16,49,23.70
2013,07,15,16,50,23.70
2013,07,15,16,51,23.70
2013,07,15,16,52,23.70
2013,07,15,16,53,23.60
2013,07,15,16,54,23.60
2013,07,15,16,55,23.50
2013,07,15,16,56,23.30
2013,07,15,16,57,23.20
2013,07,15,16,58,23.00
2013,07,15,16,59,23.00
2013,07,15,17,00,22.90
2013,07,15,17,01,22.80
2013,07,15,17,02,22.80
2013,07,15,17,03,22.80
2013,07,15,17,04,22.80
2013,07,15,17,05,22.80
2013,07,15,17,06,22.90
2013,07,15,17,07,23.00
2013,07,15,17,08,23.00
2013,07,15,17,09,23.00
2013,07,15,17,10,22.90
2013,07,15,17,11,23.00
2013,07,15,17,12,23.00
2013,07,15,17,13,22.90
2013,07,15,17,14,23.00
2013,07,15,17,15,23.00
2013,07,15,17,16,23.00
2013,07,15,17,17,23.10
2013,07,15,17,18,23.20
2013,07,15,17,19,23.20